Florala, AL

4:17 AM CDT on March 30, 2017 (GMT -0500)
Florala

Weather History for K0J4 - February, 2014

Change the Weather History Date:

Friday, February 28, 2014

  Actual Average (KCEW) Record (KCEW)
Temperature  
Mean Temperature 45 °F -  
Max Temperature 62 °F 68 °F 80 °F (1976)
Min Temperature 28 °F 42 °F 14 °F (2002)
Degree Days  
Heating Degree Days 20    
Moisture  
Dew Point 27 °F    
Average Humidity 51    
Maximum Humidity 85    
Minimum Humidity 22    
Precipitation  
Precipitation 0.00 in - - ()
Sea Level Pressure  
Sea Level Pressure 30.10 in    
Wind  
Wind Speed 2 mph (SSE)    
Max Wind Speed 9 mph    
Max Gust Speed -    
Visibility 10 miles    
Events      
Averages and records for this station are not official NWS values.
T = Trace of Precipitation, MM = Missing Value Source: NWS Daily Summary

Daily Weather History Graph

Daily Weather History Graph

Search for Another Location

Airport or City:

Trip Planner

Search our weather history database for the weather conditions in past years. The results will help you decide how hot, cold, wet, or windy it might be!

Date:

Astronomy

Feb. 28, 2014 Rise Set
Actual Time 6:12 AM CST 5:42 PM CST
Civil Twilight 5:48 AM CST 6:07 PM CST
Nautical Twilight 5:20 AM CST 6:35 PM CST
Astronomical Twilight 4:52 AM CST 7:03 PM CST
Moon 5:26 AM CST (2/28) 5:18 PM CST (2/28)
Length of Visible Light 12h 18m
Length of Day
11h 29m
Waning Crescent, 1% of the Moon is Illuminated
Feb 28
Waning Crescent
Mar 1
New
Mar 8
First Quarter
Mar 16
Full
Mar 23
Last Quarter

Hourly Weather History & Observations

Time (CST) Temp. Windchill Dew Point Humidity Pressure Visibility Wind Dir Wind Speed Gust Speed Precip Events Conditions
12:58 AM 35.1 °F - 24.1 °F 64% 30.04 in 10.0 mi Calm Calm - N/A   Clear
1:58 AM 30.0 °F - 26.1 °F 85% 30.05 in 10.0 mi Calm Calm - N/A   Clear
2:58 AM 28.9 °F 23.9 °F 24.1 °F 82% 30.04 in 10.0 mi North 4.6 mph - N/A   Clear
3:58 AM 28.0 °F - 24.1 °F 85% 30.05 in 10.0 mi Calm Calm - N/A   Clear
5:58 AM 28.0 °F - 24.1 °F 85% 30.09 in 10.0 mi Calm Calm - N/A   Clear
6:58 AM 32.0 °F - 27.0 °F 82% 30.13 in 10.0 mi Calm Calm - N/A   Clear
7:58 AM 41.0 °F 35.2 °F 24.1 °F 51% 30.14 in 10.0 mi ENE 9.2 mph - N/A   Clear
8:58 AM 45.0 °F 40.6 °F 23.0 °F 42% 30.16 in 10.0 mi East 8.1 mph - N/A   Clear
9:58 AM 50.0 °F - 24.1 °F 36% 30.14 in 10.0 mi SE 8.1 mph - N/A   Clear
10:58 AM 54.0 °F - 23.0 °F 30% 30.14 in 10.0 mi Calm Calm - N/A   Clear
11:58 AM 55.9 °F - 21.9 °F 27% 30.11 in 10.0 mi SSW 3.5 mph - N/A   Clear
12:58 PM 59.0 °F - 24.1 °F 26% 30.08 in 10.0 mi Calm Calm - N/A   Clear
1:58 PM 61.0 °F - 21.9 °F 22% 30.09 in 10.0 mi Calm Calm - N/A   Clear
2:58 PM 62.1 °F - 23.0 °F 22% 30.07 in 10.0 mi Calm Calm - N/A   Partly Cloudy
3:58 PM 62.1 °F - 26.1 °F 25% 30.07 in 10.0 mi Variable 5.8 mph - N/A   Clear
4:58 PM 60.1 °F - 28.9 °F 31% 30.07 in 10.0 mi Calm Calm - N/A   Clear
5:58 PM 55.9 °F - 30.9 °F 39% 30.10 in 10.0 mi SW 4.6 mph - N/A   Clear
6:58 PM 53.1 °F - 33.1 °F 47% 30.11 in 10.0 mi South 5.8 mph - N/A   Clear
7:58 PM 52.0 °F - 33.1 °F 49% 30.12 in 10.0 mi South 5.8 mph - N/A   Clear
8:58 PM 51.1 °F - 34.0 °F 52% 30.13 in 10.0 mi South 4.6 mph - N/A   Partly Cloudy
9:58 PM 50.0 °F - 35.1 °F 57% 30.12 in 10.0 mi SSE 5.8 mph - N/A   Partly Cloudy
10:58 PM 46.9 °F - 35.1 °F 63% 30.16 in 10.0 mi Calm Calm - N/A   Partly Cloudy
11:58 PM 45.0 °F - 39.0 °F 80% 30.15 in 10.0 mi Calm Calm - N/A   Partly Cloudy